Weather History for KMCO - December, 2014

Change the Weather History Date:

Wednesday, December 3, 2014

  Actual Average Record
Temperature  
Mean Temperature 71 °F 65 °F  
Max Temperature 80 °F 75 °F 88 °F (1928)
Min Temperature 62 °F 55 °F 29 °F (1910)
Degree Days  
Heating Degree Days 0 3  
Month to date heating degree days 0 9  
Since 1 July heating degree days 82 56  
Cooling Degree Days 6 3  
Month to date cooling degree days 17 9  
Year to date cooling degree days 3508 3363  
Growing Degree Days 21 (Base 50)    
Moisture  
Dew Point 63 °F    
Average Humidity 77    
Maximum Humidity 100    
Minimum Humidity 54    
Precipitation  
Precipitation 0.00 in 0.09 in 1.74 in (1950)
Month to date precipitation 0.39 0.25  
Year to date precipitation 54.15 48.40  
Sea Level Pressure  
Sea Level Pressure 30.18 in    
Wind  
Wind Speed 8 mph (NNE)    
Max Wind Speed 17 mph    
Max Gust Speed 21 mph    
Visibility 9 miles    
Events Fog    
T = Trace of Precipitation, MM = Missing Value Source: NWS Daily Summary

Daily Weather History Graph

Daily Weather History Graph

Search for Another Location

Airport or City:

Trip Planner

Search our weather history database for the weather conditions in past years. The results will help you decide how hot, cold, wet, or windy it might be!

Date:

Astronomy

Dec. 03, 2014 Rise Set
Actual Time 7:01 AM EST 5:28 PM EST
Civil Twilight 6:36 AM EST 5:54 PM EST
Nautical Twilight 6:06 AM EST 6:23 PM EST
Astronomical Twilight 5:38 AM EST 6:51 PM EST
Moon 3:35 PM EST 4:02 AM EST
Length of Visible Light 11h 17m
Length of Day
10h 26m
Waxing Gibbous, 91% of the Moon is Illuminated
Dec 3
Waxing Gibbous
Dec 6
Full
Dec 14
Last Quarter
Dec 21
New
Dec 28
First Quarter

Hourly Weather History & Observations

Time (EST) Temp. Dew Point Humidity Pressure Visibility Wind Dir Wind Speed Gust Speed Precip Events Conditions
12:53 AM 66.0 °F 64.9 °F 96% 30.18 in 10.0 mi NNE 5.8 mph - N/A   Scattered Clouds
1:53 AM 64.0 °F 64.0 °F 100% 30.17 in 10.0 mi North 4.6 mph - N/A   Clear
2:53 AM 64.0 °F 64.0 °F 100% 30.17 in 10.0 mi North 6.9 mph - N/A   Partly Cloudy
3:53 AM 63.0 °F 62.1 °F 97% 30.15 in 6.0 mi Calm Calm - N/A   Clear
4:53 AM 63.0 °F 63.0 °F 100% 30.16 in 10.0 mi North 5.8 mph - N/A   Partly Cloudy
5:53 AM 62.1 °F 61.0 °F 96% 30.17 in 10.0 mi Calm Calm - N/A   Partly Cloudy
6:53 AM 63.0 °F 62.1 °F 97% 30.18 in 10.0 mi NNW 5.8 mph - N/A   Scattered Clouds
7:53 AM 64.9 °F 64.0 °F 97% 30.19 in 10.0 mi North 3.5 mph - N/A   Partly Cloudy
8:53 AM 69.1 °F 66.0 °F 90% 30.21 in 10.0 mi North 6.9 mph - N/A   Scattered Clouds
9:53 AM 73.0 °F 66.0 °F 79% 30.22 in 10.0 mi NNE 9.2 mph - N/A   Mostly Cloudy
10:53 AM 75.0 °F 66.0 °F 73% 30.21 in 10.0 mi ENE 9.2 mph - N/A   Mostly Cloudy
11:53 AM 77.0 °F 63.0 °F 62% 30.19 in 10.0 mi East 12.7 mph - N/A   Mostly Cloudy
12:53 PM 77.0 °F 62.1 °F 60% 30.17 in 10.0 mi ENE 12.7 mph - N/A   Mostly Cloudy
1:53 PM 79.0 °F 61.0 °F 54% 30.15 in 10.0 mi NE 13.8 mph - N/A   Mostly Cloudy
2:53 PM 79.0 °F 60.1 °F 52% 30.14 in 10.0 mi NE 12.7 mph - N/A   Partly Cloudy
3:53 PM 77.0 °F 60.1 °F 56% 30.13 in 10.0 mi ENE 13.8 mph - N/A   Scattered Clouds
4:53 PM 75.0 °F 61.0 °F 62% 30.15 in 10.0 mi ENE 12.7 mph - N/A   Partly Cloudy
5:53 PM 71.1 °F 62.1 °F 73% 30.16 in 10.0 mi ENE 8.1 mph - N/A   Clear
6:53 PM 70.0 °F 63.0 °F 78% 30.18 in 10.0 mi NNE 8.1 mph - N/A   Clear
7:53 PM 68.0 °F 64.0 °F 87% 30.19 in 10.0 mi NNE 10.4 mph - N/A   Clear
8:53 PM 66.0 °F 64.0 °F 93% 30.20 in 10.0 mi NNE 6.9 mph - N/A   Clear
9:53 PM 64.0 °F 63.0 °F 96% 30.20 in 10.0 mi NNE 6.9 mph - N/A   Clear
10:28 PM 64.0 °F 63.0 °F 96% 30.20 in 10.0 mi NNE 9.2 mph - N/A   Partly Cloudy
10:41 PM 63.0 °F 63.0 °F 100% 30.20 in 0.8 mi North 9.2 mph - N/A Fog Patches of Fog
10:53 PM 63.0 °F 63.0 °F 100% 30.20 in 0.5 mi North 9.2 mph - N/A Fog Patches of Fog
11:53 PM 64.0 °F 64.0 °F 100% 30.19 in 0.5 mi NNE 9.2 mph - N/A   Mostly Cloudy